DW3588 Weather Reports


Display with metric or nautical units.
time (UTC)temp
F
wind
direction
speed
MPH
gust
MPH
rain 1hr
in
rain 24hr
in
rain mn
in
humidity
%
barometer
mb
20260903192931 80 342 4.0 10.0 0.00 0.00 0.00 49 1012.8
20260903192430 80 285 5.0 12.0 0.00 0.00 0.00 49 1012.8
20260903191927 80 298 5.0 12.0 0.00 0.00 0.00 48 1012.9
20260903191425 82 284 3.0 9.0 0.00 0.00 0.00 48 1013.0
20260903190923 82 211 3.0 8.0 0.00 0.00 0.00 46 1013.0
20260903190423 82 225 3.0 7.0 0.00 0.00 0.00 47 1013.0
20260903185922 81 107 3.0 7.0 0.00 0.00 0.00 49 1013.0
20260903185422 82 136 3.0 6.0 0.00 0.00 0.00 47 1013.1
20260903184919 83 210 4.0 8.0 0.00 0.00 0.00 46 1013.2
20260903184418 82 238 4.0 8.0 0.00 0.00 0.00 47 1013.2
20260903183912 81 309 3.0 10.0 0.00 0.00 0.00 48 1013.3
20260903183410 81 312 2.0 10.0 0.00 0.00 0.00 47 1013.3
20260903182908 80 229 2.0 7.0 0.00 0.00 0.00 49 1013.4
20260903182408 80 245 1.0 7.0 0.00 0.00 0.00 49 1013.3
20260903181905 80 186 1.0 4.0 0.00 0.00 0.00 50 1013.3
20260903181403 79 204 1.0 5.0 0.00 0.00 0.00 50 1013.4
20260903180902 79 165 1.0 5.0 0.00 0.00 0.00 50 1013.4
20260903180359 79 204 2.0 5.0 0.00 0.00 0.00 51 1013.5
20260903175859 77 205 2.0 6.0 0.00 0.00 0.00 52 1013.5
20260903175358 78 265 2.0 6.0 0.00 0.00 0.00 52 1013.5
20260903175110 78 275 3.0 6.0 0.00 0.00 0.00 51 1013.6
20260903174352 78 281 4.0 10.0 0.00 0.00 0.00 52 1013.7
20260903173852 78 242 4.0 10.0 0.00 0.00 0.00 51 1013.8
20260903173612 78 257 4.0 10.0 0.00 0.00 0.00 51 1013.8
20260903172851 78 239 3.0 10.0 0.00 0.00 0.00 52 1013.8
20260903172623 77 243 2.0 8.0 0.00 0.00 0.00 52 1013.8
20260903171846 76 317 2.0 4.0 0.00 0.00 0.00 54 1013.8
20260903171345 76 328 3.0 8.0 0.00 0.00 0.00 54 1013.8
20260903170845 75 339 2.0 9.0 0.00 0.00 0.00 56 1013.9
20260903170346 75 306 1.0 9.0 0.00 0.00 0.00 56 1013.9
20260903165845 74 259 1.0 4.0 0.00 0.00 0.00 58 1014.0
20260903165345 74 261 2.0 6.0 0.00 0.00 0.00 58 1013.9
20260903164844 73 265 2.0 6.0 0.00 0.00 0.00 60 1014.0
20260903164342 72 72 2.0 5.0 0.00 0.00 0.00 61 1014.0
20260903163841 72 328 2.0 5.0 0.00 0.00 0.00 61 1014.1
20260903163339 72 305 2.0 5.0 0.00 0.00 0.00 61 1014.1
20260903162840 71 323 1.0 5.0 0.00 0.00 0.00 62 1014.1
20260903162337 71 292 1.0 4.0 0.00 0.00 0.00 62 1014.2
20260903161840 71 292 2.0 4.0 0.00 0.00 0.00 64 1014.1
20260903161329 71 0 2.0 5.0 0.00 0.00 0.00 64 1014.2
20260903160829 70 5 2.0 5.0 0.00 0.00 0.00 65 1014.2
20260903160327 70 324 1.0 4.0 0.00 0.00 0.00 65 1014.2
20260903155826 69 290 1.0 3.0 0.00 0.00 0.00 68 1014.2
20260903155327 67 189 1.0 3.0 0.00 0.00 0.00 71 1014.1
20260903154827 64 188 1.0 3.0 0.00 0.00 0.00 77 1014.2
20260903154326 63 188 0.0 2.0 0.00 0.00 0.00 80 1014.3
20260903153825 62 187 0.0 3.0 0.00 0.00 0.00 81 1014.3
20260903153326 62 187 1.0 3.0 0.00 0.00 0.00 82 1014.4
20260903152827 61 190 0.0 3.0 0.00 0.00 0.00 82 1014.4
20260903152323 61 196 0.0 3.0 0.00 0.00 0.00 82 1014.5
20260903151822 60 196 1.0 2.0 0.00 0.00 0.00 83 1014.5
20260903151321 60 196 0.0 2.0 0.00 0.00 0.00 83 1014.5
20260903151043 60 246 0.0 0.0 0.00 0.00 0.00 83 1014.6
20260903150319 59 246 0.0 0.0 0.00 0.00 0.00 83 1014.5
20260903145820 59 246 0.0 0.0 0.00 0.00 0.00 82 1014.5
20260903145320 59 246 0.0 0.0 0.00 0.00 0.00 82 1014.4
20260903145305 58 246 0.0 0.0 0.00 0.00 0.00 82 1014.4
20260903144313 58 246 0.0 0.0 0.00 0.00 0.00 81 1014.5
20260903143811 58 247 0.0 0.0 0.00 0.00 0.00 81 1014.5
20260903143311 58 247 0.0 3.0 0.00 0.00 0.00 80 1014.5
20260903142809 58 247 0.0 3.0 0.00 0.00 0.00 80 1014.4
20260903142533 58 247 1.0 3.0 0.00 0.00 0.00 80 1014.4
20260903141807 58 248 1.0 3.0 0.00 0.00 0.00 80 1014.4
20260903141307 58 249 1.0 4.0 0.00 0.00 0.00 79 1014.4
20260903140808 58 250 1.0 4.0 0.00 0.00 0.00 79 1014.5
20260903140305 58 263 1.0 3.0 0.00 0.00 0.00 79 1014.5
20260903135757 58 265 1.0 2.0 0.00 0.00 0.00 79 1014.5
20260903135250 59 266 0.0 2.0 0.00 0.00 0.00 79 1014.4
20260903134747 59 267 0.0 2.0 0.00 0.00 0.00 79 1014.4
20260903134243 59 267 1.0 2.0 0.00 0.00 0.00 79 1014.3
20260903133741 59 268 1.0 2.0 0.00 0.00 0.00 79 1014.3
20260903133235 59 268 0.0 2.0 0.00 0.00 0.00 79 1014.3
20260903133214 59 269 0.0 2.0 0.00 0.00 0.00 79 1014.3
20260903132234 59 269 0.0 2.0 0.00 0.00 0.00 79 1014.2
20260903131737 59 269 0.0 2.0 0.00 0.00 0.00 79 1014.2
20260903131231 59 269 1.0 3.0 0.00 0.00 0.00 79 1014.3
20260903130730 59 269 1.0 3.0 0.00 0.00 0.00 79 1014.2
20260903130231 60 279 0.0 2.0 0.00 0.00 0.00 79 1014.2
20260903125729 60 279 0.0 2.0 0.00 0.00 0.00 79 1014.2
20260903125223 60 279 0.0 2.0 0.00 0.00 0.00 79 1014.3
20260903124722 60 279 1.0 2.0 0.00 0.00 0.00 79 1014.3
20260903124443 60 279 1.0 2.0 0.00 0.00 0.00 79 1014.2
20260903123721 60 279 1.0 3.0 0.00 0.00 0.00 79 1014.3
20260903123221 60 279 1.0 3.0 0.00 0.00 0.00 79 1014.3
20260903122719 60 279 1.0 3.0 0.00 0.00 0.00 79 1014.3
20260903122218 60 279 2.0 3.0 0.00 0.00 0.00 79 1014.3
20260903121715 60 279 1.0 3.0 0.00 0.00 0.00 79 1014.3
20260903121440 60 277 2.0 6.0 0.00 0.00 0.00 79 1014.3
20260903120714 60 277 2.0 6.0 0.00 0.00 0.00 79 1014.3
20260903120211 60 295 2.0 5.0 0.00 0.00 0.00 79 1014.3
20260903115711 60 254 2.0 7.0 0.00 0.00 0.00 79 1014.3
20260903115210 60 288 3.0 7.0 0.00 0.00 0.00 79 1014.4
20260903114711 60 319 3.0 8.0 0.00 0.00 0.00 79 1014.4
20260903114211 60 300 3.0 8.0 0.00 0.00 0.00 79 1014.5
20260903113710 60 277 2.0 6.0 0.00 0.00 0.00 79 1014.6
20260903113436 60 267 2.0 6.0 0.00 0.00 0.00 79 1014.6
20260903112711 60 284 2.0 6.0 0.00 0.00 0.00 79 1014.6
20260903112432 60 279 2.0 5.0 0.00 0.00 0.00 79 1014.7
20260903111703 60 300 2.0 5.0 0.00 0.00 0.00 79 1014.7
20260903111203 60 296 1.0 4.0 0.00 0.00 0.00 78 1014.8
20260903110702 60 298 1.0 4.0 0.00 0.00 0.00 78 1014.8
20260903110157 59 298 1.0 5.0 0.00 0.00 0.00 78 1014.8
20260903105655 59 297 2.0 5.0 0.00 0.00 0.00 78 1014.9
20260903105153 59 300 2.0 6.0 0.00 0.00 0.00 78 1014.8
20260903104650 59 312 1.0 6.0 0.00 0.00 0.00 77 1014.8
20260903104148 59 277 1.0 4.0 0.00 0.00 0.00 77 1014.8
20260903103648 59 269 1.0 4.0 0.00 0.00 0.00 76 1014.9
20260903103633 59 279 0.0 2.0 0.00 0.00 0.00 75 1014.8
20260903102646 59 279 0.0 2.0 0.00 0.00 0.00 75 1014.9
20260903102147 59 279 1.0 3.0 0.00 0.00 0.00 75 1014.9
20260903101647 59 279 2.0 4.0 0.00 0.00 0.00 75 1014.9
20260903101141 59 277 1.0 4.0 0.00 0.00 0.00 75 1015.0
20260903100639 59 275 0.0 3.0 0.00 0.00 0.00 74 1014.9
20260903100137 59 275 0.0 2.0 0.00 0.00 0.00 73 1015.0
20260903095640 60 275 0.0 1.0 0.00 0.00 0.00 73 1014.9
20260903095636 60 275 0.0 2.0 0.00 0.00 0.00 73 1015.0
20260903094637 60 275 0.0 6.0 0.00 0.00 0.00 73 1015.0
20260903094137 60 275 1.0 6.0 0.00 0.00 0.00 73 1015.0
20260903093637 60 275 2.0 6.0 0.00 0.00 0.00 73 1015.0
20260903093134 60 275 3.0 6.0 0.00 0.00 0.00 73 1014.9
20260903092632 60 233 1.0 5.0 0.00 0.00 0.00 72 1015.0
20260903092127 60 265 0.0 4.0 0.00 0.00 0.00 72 1015.1
20260903091625 60 265 1.0 4.0 0.00 0.00 0.00 72 1015.2
20260903091123 60 217 0.0 3.0 0.00 0.00 0.00 72 1015.2
20260903090621 60 215 0.0 0.0 0.00 0.00 0.00 72 1015.2
20260903090121 60 215 0.0 0.0 0.00 0.00 0.00 72 1015.3
20260903085621 60 215 0.0 2.0 0.00 0.00 0.00 72 1015.3
20260903085121 60 215 0.0 3.0 0.00 0.00 0.00 72 1015.3
20260903084840 60 215 1.0 3.0 0.00 0.00 0.00 72 1015.3
20260903084117 60 215 1.0 3.0 0.00 0.00 0.00 72 1015.4
20260903083615 60 215 2.0 3.0 0.00 0.00 0.00 71 1015.4
20260903083113 60 215 2.0 4.0 0.00 0.00 0.00 71 1015.4
20260903082833 60 215 2.0 4.0 0.00 0.00 0.00 71 1015.4
20260903082109 60 229 1.0 4.0 0.00 0.00 0.00 70 1015.4
20260903081608 60 234 0.0 2.0 0.00 0.00 0.00 69 1015.4
20260903081111 60 235 0.0 2.0 0.00 0.00 0.00 69 1015.4
20260903080608 61 235 0.0 3.0 0.00 0.00 0.00 69 1015.4
20260903080331 61 235 0.0 3.0 0.00 0.00 0.00 69 1015.4
20260903075825 61 308 0.0 2.0 0.00 0.00 0.00 69 1015.4
20260903075104 62 309 0.0 2.0 0.00 0.00 0.00 69 1015.3
20260903074604 62 309 0.0 3.0 0.00 0.00 0.00 69 1015.3
20260903074319 62 309 1.0 3.0 0.00 0.00 0.00 69 1015.3
20260903073601 62 309 1.0 3.0 0.00 0.00 0.00 69 1015.3
20260903073102 62 311 1.0 2.0 0.00 0.00 0.00 69 1015.3
20260903072559 62 311 0.0 2.0 0.00 0.00 0.00 69 1015.2
20260903072057 62 319 0.0 2.0 0.00 0.00 0.00 69 1015.2
20260903071555 62 319 0.0 2.0 0.00 0.00 0.00 69 1015.3
20260903071053 63 319 0.0 2.0 0.00 0.00 0.00 69 1015.3
20260903070552 63 319 0.0 1.0 0.00 0.00 0.00 69 1015.3
20260903070052 63 319 0.0 1.0 0.00 0.00 0.00 70 1015.3
20260903065812 63 319 0.0 2.0 0.00 0.00 0.00 69 1015.2
20260903065051 63 319 1.0 2.0 0.00 0.00 0.00 69 1015.3
20260903064816 63 320 0.0 2.0 0.00 0.00 0.00 69 1015.3
20260903064309 63 320 0.0 2.0 0.00 0.00 0.00 69 1015.3
20260903063547 63 320 1.0 3.0 0.00 0.00 0.00 69 1015.3
20260903063315 64 320 2.0 3.0 0.00 0.00 0.00 68 1015.3
20260903062543 64 319 2.0 4.0 0.00 0.00 0.00 68 1015.3
20260903062041 64 319 2.0 4.0 0.00 0.00 0.00 67 1015.3
20260903061539 64 343 2.0 4.0 0.00 0.00 0.00 67 1015.3
20260903061038 64 329 2.0 4.0 0.00 0.00 0.00 66 1015.4
20260903060757 64 329 2.0 4.0 0.00 0.00 0.00 66 1015.3
20260903060252 64 329 2.0 4.0 0.00 0.00 0.00 65 1015.3
20260903055800 65 313 2.0 4.0 0.00 0.00 0.00 65 1015.3
20260903055033 65 313 2.0 4.0 0.00 0.00 0.00 65 1015.4
20260903054531 65 312 2.0 4.0 0.00 0.00 0.00 64 1015.5
20260903054028 65 310 2.0 6.0 0.00 0.00 0.00 64 1015.5
20260903053527 65 313 2.0 6.0 0.00 0.00 0.00 63 1015.5
20260903053026 65 323 3.0 6.0 0.00 0.00 0.00 63 1015.5
20260903052517 65 315 4.0 8.0 0.00 0.00 0.00 63 1015.5
20260903052015 65 320 4.0 8.0 0.00 0.00 0.00 62 1015.5
20260903051514 66 315 3.0 7.0 0.00 0.00 0.00 61 1015.4
20260903051014 66 307 3.0 6.0 0.00 0.00 0.00 61 1015.4
20260903050512 66 298 2.0 5.0 0.00 0.00 0.00 61 1015.5
20260903050011 66 298 2.0 7.0 0.00 0.00 0.00 61 1015.5
20260903045510 66 294 2.0 7.0 0.00 0.00 0.00 61 1015.5
20260903045010 67 294 2.0 5.0 0.00 0.00 0.00 60 1015.5
20260903044509 67 300 2.0 4.0 0.00 0.00 0.00 60 1015.5
20260903044007 67 302 2.0 4.0 0.00 0.00 0.00 60 1015.5
20260903043728 67 286 3.0 4.0 0.00 0.00 0.00 60 1015.4
20260903043006 67 273 2.0 4.0 0.00 0.00 0.00 60 1015.4
20260903042506 67 298 2.0 4.0 0.00 0.00 0.00 61 1015.4
20260903042002 68 289 2.0 4.0 0.00 0.00 0.00 60 1015.4
20260903041500 68 288 2.0 4.0 0.00 0.00 0.00 60 1015.3
20260903041219 68 288 2.0 4.0 0.00 0.00 0.00 60 1015.3
20260903040458 68 283 2.0 4.0 0.00 0.00 0.00 60 1015.3
20260903035956 68 276 2.0 6.0 0.00 0.00 0.00 61 1015.2
20260903035454 69 283 3.0 8.0 0.00 0.00 0.00 60 1015.2
20260903034953 69 284 4.0 9.0 0.00 0.00 0.00 60 1015.1
20260903034451 69 326 5.0 9.0 0.00 0.00 0.00 60 1015.0
20260903033950 69 277 5.0 9.0 0.00 0.00 0.00 59 1015.0
20260903033448 69 309 5.0 10.0 0.00 0.00 0.00 59 1014.9
20260903032947 70 319 5.0 10.0 0.00 0.00 0.00 58 1014.8
20260903032441 70 332 4.0 9.0 0.00 0.00 0.00 57 1014.7
20260903032208 71 303 4.0 10.0 0.00 0.00 0.00 56 1014.7
20260903031437 71 311 4.0 10.0 0.00 0.00 0.00 54 1014.6
20260903030939 71 311 4.0 9.0 0.00 0.00 0.00 52 1014.6
20260903030437 72 321 4.0 9.0 0.00 0.00 0.00 51 1014.5
20260903025936 72 324 3.0 8.0 0.00 0.00 0.00 50 1014.5
20260903025434 73 313 3.0 7.0 0.00 0.00 0.00 49 1014.4
20260903024932 73 264 2.0 7.0 0.00 0.00 0.00 48 1014.4
20260903024428 74 235 3.0 8.0 0.00 0.00 0.00 49 1014.4
20260903023927 74 241 2.0 8.0 0.00 0.00 0.00 50 1014.4
20260903023424 74 242 2.0 6.0 0.00 0.00 0.00 50 1014.3
20260903022925 74 253 4.0 9.0 0.00 0.00 0.00 50 1014.4
20260903022423 75 275 4.0 10.0 0.00 0.00 0.00 50 1014.4
20260903021921 75 266 5.0 11.0 0.00 0.00 0.00 50 1014.3
20260903021419 75 276 5.0 11.0 0.00 0.00 0.00 50 1014.3
20260903020914 75 268 4.0 8.0 0.00 0.00 0.00 50 1014.3
20260903020414 76 281 4.0 7.0 0.00 0.00 0.00 50 1014.3
20260903015912 76 285 3.0 8.0 0.00 0.00 0.00 50 1014.4
20260903015412 76 234 3.0 8.0 0.00 0.00 0.00 50 1014.4
20260903015132 76 199 3.0 6.0 0.00 0.00 0.00 51 1014.4
20260903014407 76 218 3.0 6.0 0.00 0.00 0.00 51 1014.3
20260903013905 76 205 3.0 7.0 0.00 0.00 0.00 51 1014.3
20260903013404 76 213 3.0 7.0 0.00 0.00 0.00 50 1014.4
20260903012904 77 215 4.0 9.0 0.00 0.00 0.00 50 1014.4
20260903012403 77 229 5.0 10.0 0.00 0.00 0.00 49 1014.4
20260903011904 78 232 6.0 12.0 0.00 0.00 0.00 49 1014.3
20260903011404 78 235 6.0 12.0 0.00 0.00 0.00 48 1014.3
20260903010904 78 211 6.0 11.0 0.00 0.00 0.00 48 1014.4
20260903010403 78 228 6.0 11.0 0.00 0.00 0.00 49 1014.3
20260903005858 79 231 6.0 11.0 0.00 0.00 0.00 48 1014.3
20260903005357 79 219 5.0 11.0 0.00 0.00 0.00 48 1014.3
20260903004857 79 226 5.0 11.0 0.00 0.00 0.00 48 1014.4
20260903004358 79 223 5.0 11.0 0.00 0.00 0.00 48 1014.4
20260903003854 79 232 6.0 12.0 0.00 0.00 0.00 48 1014.5
20260903003354 80 226 6.0 12.0 0.00 0.00 0.00 48 1014.4
20260903002852 80 190 5.0 10.0 0.00 0.00 0.00 47 1014.4
20260903002610 80 238 4.0 11.0 0.00 0.00 0.00 47 1014.5
20260903001850 80 222 4.0 11.0 0.00 0.00 0.00 47 1014.4
20260903001350 81 215 4.0 8.0 0.00 0.00 0.00 47 1014.4
20260903001108 81 232 4.0 7.0 0.00 0.00 0.00 47 1014.4
20260903000342 81 249 4.0 11.0 0.00 0.00 0.00 47 1014.5
20260903000106 81 240 5.0 11.0 0.00 0.00 0.00 46 1014.6
20260902235339 81 231 5.0 12.0 0.00 0.00 0.00 46 1014.5
20260902234840 81 248 5.0 12.0 0.00 0.00 0.00 47 1014.5
20260902234340 81 232 3.0 11.0 0.00 0.00 0.00 47 1014.6
20260902233835 80 257 3.0 6.0 0.00 0.00 0.00 48 1014.6
20260902233333 81 240 3.0 8.0 0.00 0.00 0.00 47 1014.6
20260902232831 80 208 2.0 8.0 0.00 0.00 0.00 48 1014.7
20260902232331 80 174 3.0 11.0 0.00 0.00 0.00 48 1014.7
20260902231829 80 238 2.0 11.0 0.00 0.00 0.00 49 1014.8
20260902231328 78 342 1.0 5.0 0.00 0.00 0.00 53 1014.8
20260902230827 78 44 2.0 5.0 0.00 0.00 0.00 53 1014.8
20260902230320 77 44 2.0 8.0 0.00 0.00 0.00 54 1014.8
20260902225820 77 318 2.0 8.0 0.00 0.00 0.00 53 1014.9
20260902225320 77 350 2.0 7.0 0.00 0.00 0.00 54 1015.0
20260902224818 77 42 2.0 7.0 0.00 0.00 0.00 54 1015.0
20260902224317 76 344 1.0 5.0 0.00 0.00 0.00 55 1015.1
20260902223815 76 129 2.0 5.0 0.00 0.00 0.00 55 1015.1
20260902223312 77 82 2.0 9.0 0.00 0.00 0.00 54 1015.1
20260902222812 77 70 3.0 9.0 0.00 0.00 0.00 54 1015.1
20260902222310 77 63 4.0 8.0 0.00 0.00 0.00 54 1015.2
20260902221811 78 0 4.0 8.0 0.00 0.00 0.00 54 1015.2
20260902221309 78 338 4.0 8.0 0.00 0.00 0.00 53 1015.2
20260902220810 78 31 4.0 9.0 0.00 0.00 0.00 53 1015.3
20260902220307 78 5 3.0 9.0 0.00 0.00 0.00 52 1015.4
20260902215808 78 304 4.0 9.0 0.00 0.00 0.00 54 1015.4
20260902215306 77 351 4.0 9.0 0.00 0.00 0.00 54 1015.5
20260902214805 78 331 3.0 9.0 0.00 0.00 0.00 54 1015.6
20260902214522 77 340 3.0 9.0 0.00 0.00 0.00 55 1015.7
20260902213801 76 62 2.0 9.0 0.00 0.00 0.00 55 1015.7
20260902213303 76 107 3.0 9.0 0.00 0.00 0.00 57 1015.7
20260902212800 75 40 3.0 8.0 0.00 0.00 0.00 57 1015.8
20260902212258 75 75 4.0 8.0 0.00 0.00 0.00 57 1015.9
20260902211756 75 31 4.0 8.0 0.00 0.00 0.00 57 1015.9
20260902211256 75 355 4.0 8.0 0.00 0.00 0.00 59 1015.9
20260902210756 75 355 4.0 9.0 0.00 0.00 0.00 58 1015.9
20260902210255 75 0 5.0 9.0 0.00 0.00 0.00 59 1015.9
20260902205751 75 28 5.0 9.0 0.00 0.00 0.00 59 1015.8
20260902205249 75 36 5.0 10.0 0.00 0.00 0.00 59 1015.9
20260902204748 75 346 5.0 10.0 0.00 0.00 0.00 59 1016.0
20260902204248 76 349 4.0 10.0 0.00 0.00 0.00 59 1016.1
20260902203746 75 30 3.0 9.0 0.00 0.00 0.00 58 1016.1
20260902203245 75 338 3.0 7.0 0.00 0.00 0.00 58 1016.1
20260902202746 75 51 4.0 9.0 0.00 0.00 0.00 57 1016.1
20260902202244 76 355 4.0 10.0 0.00 0.00 0.00 56 1016.3
20260902201744 76 344 2.0 10.0 0.00 0.00 0.00 54 1016.3
20260902201244 76 355 2.0 6.0 0.00 0.00 0.00 54 1016.3
20260902200741 75 38 2.0 7.0 0.00 0.00 0.00 54 1016.3
20260902200242 75 95 3.0 7.0 0.00 0.00 0.00 55 1016.4
20260902195743 76 24 3.0 8.0 0.00 0.00 0.00 54 1016.4
20260902195240 76 340 3.0 8.0 0.00 0.00 0.00 54 1016.4
20260902194739 75 35 3.0 8.0 0.00 0.00 0.00 54 1016.5
20260902194240 76 336 3.0 9.0 0.00 0.00 0.00 53 1016.5
20260902193737 76 338 2.0 9.0 0.00 0.00 0.00 52 1016.4
20260902193459 78 236 2.0 6.0 0.00 0.00 0.00 49 1016.5